• In Uzbekistan
  • List of Countries
  • For 7 days
  • Water Temperature
  • Satellite Maps
  • Weather Map
  • Weather Widgets
  • user-avatar
    Login

    Hourly Weather Kisumu

    Today, 16 October, Tuesday

    Time Temperature Precipitation Wind Pressure Humidity
    00:00 +22°C° 0.9 mm 1 mps 665 mmHg 85%
    01:00 +22°C° 0.9 mm 1 mps 664 mmHg 85%
    02:00 +22°C° 0 mm 1 mps 664 mmHg 84%
    03:00 +22°C° 0.4 mm 1 mps 664 mmHg 84%
    04:00 +22°C° 0.4 mm 1 mps 664 mmHg 85%
    05:00 +21°C° 0.4 mm 1 mps 664 mmHg 85%
    06:00 +23°C° 0 mm 1 mps 665 mmHg 80%
    07:00 +24°C° 0 mm 1 mps 666 mmHg 75%
    08:00 +25°C° 0 mm 1 mps 666 mmHg 72%
    09:00 +25°C° 0.2 mm 1 mps 666 mmHg 70%
    10:00 +26°C° 0.2 mm 1 mps 666 mmHg 68%
    11:00 +27°C° 0.2 mm 1 mps 666 mmHg 65%
    12:00 +27°C° 0.3 mm 1 mps 665 mmHg 63%
    13:00 +28°C° 0.3 mm 1 mps 665 mmHg 61%
    14:00 +29°C° 0 mm 1 mps 664 mmHg 55%
    15:00 +28°C° 0.3 mm 1 mps 664 mmHg 59%
    16:00 +27°C° 0.3 mm 1 mps 664 mmHg 63%
    17:00 +27°C° 0.3 mm 1 mps 664 mmHg 67%
    18:00 +25°C° 0.6 mm 1 mps 664 mmHg 71%
    19:00 +24°C° 0.6 mm 1 mps 664 mmHg 76%
    20:00 +23°C° 0.6 mm 1 mps 665 mmHg 80%
    21:00 +23°C° 1.1 mm 1 mps 665 mmHg 82%
    22:00 +22°C° 1.1 mm 1 mps 665 mmHg 84%
    23:00 +22°C° 1.1 mm 1 mps 665 mmHg 86%

    Tomorrow, 17 October, Wednesday

    Time Temperature Precipitation Wind Pressure Humidity
    00:00 +22°C° 0.6 mm 1 mps 664 mmHg 86%
    01:00 +20°C° 0.6 mm 2 mps 664 mmHg 86%
    02:00 +20°C° 0.6 mm 2 mps 664 mmHg 86%
    03:00 +20°C° 0 mm 2 mps 664 mmHg 86%
    04:00 +20°C° 0 mm 2 mps 664 mmHg 85%
    05:00 +20°C° 0 mm 2 mps 664 mmHg 85%
    06:00 +23°C° 0 mm 2 mps 664 mmHg 77%
    07:00 +25°C° 0 mm 2 mps 665 mmHg 69%
    08:00 +27°C° 0 mm 2 mps 666 mmHg 61%
    09:00 +29°C° 0 mm 2 mps 666 mmHg 55%
    10:00 +30°C° 0 mm 1 mps 666 mmHg 48%
    11:00 +32°C° 0 mm 1 mps 666 mmHg 42%
    12:00 +32°C° 0.1 mm 1 mps 665 mmHg 44%
    13:00 +32°C° 0.1 mm 1 mps 664 mmHg 45%
    14:00 +31°C° 0.1 mm 2 mps 663 mmHg 47%
    15:00 +30°C° 0.3 mm 2 mps 663 mmHg 54%
    16:00 +28°C° 0.3 mm 2 mps 663 mmHg 60%
    17:00 +26°C° 0.3 mm 2 mps 663 mmHg 67%
    18:00 +25°C° 0.9 mm 2 mps 663 mmHg 71%
    19:00 +24°C° 0.9 mm 2 mps 663 mmHg 76%
    20:00 +23°C° 0.9 mm 2 mps 664 mmHg 80%
    21:00 +23°C° 1.3 mm 2 mps 664 mmHg 82%
    22:00 +21°C° 1.3 mm 3 mps 664 mmHg 83%
    23:00 +20°C° 1.3 mm 4 mps 664 mmHg 85%

    Day after tomorrow, 18 October, Thursday

    Time Temperature Precipitation Wind Pressure Humidity
    00:00 +20°C° 0.5 mm 3 mps 663 mmHg 85%
    01:00 +20°C° 0.5 mm 3 mps 663 mmHg 85%
    02:00 +20°C° 0.5 mm 2 mps 662 mmHg 85%
    03:00 +20°C° 0.1 mm 2 mps 662 mmHg 84%
    04:00 +20°C° 0.1 mm 2 mps 662 mmHg 83%
    05:00 +20°C° 0.1 mm 2 mps 662 mmHg 82%
    06:00 +21°C° 0 mm 2 mps 663 mmHg 77%
    07:00 +24°C° 0 mm 2 mps 664 mmHg 72%
    08:00 +25°C° 0 mm 2 mps 665 mmHg 67%
    09:00 +28°C° 0 mm 2 mps 665 mmHg 57%
    10:00 +31°C° 0 mm 1 mps 665 mmHg 48%
    11:00 +33°C° 0 mm 1 mps 666 mmHg 38%
    12:00 +33°C° 0 mm 1 mps 664 mmHg 41%
    13:00 +32°C° 0 mm 2 mps 663 mmHg 43%
    14:00 +31°C° 0 mm 3 mps 662 mmHg 46%
    15:00 +29°C° 0.7 mm 2 mps 662 mmHg 54%
    16:00 +27°C° 0.7 mm 2 mps 662 mmHg 63%
    17:00 +25°C° 0.7 mm 2 mps 661 mmHg 72%
    18:00 +24°C° 1.3 mm 2 mps 662 mmHg 77%
    19:00 +23°C° 1.3 mm 2 mps 662 mmHg 82%
    20:00 +21°C° 1.3 mm 2 mps 663 mmHg 86%
    21:00 +22°C° 0.7 mm 1 mps 663 mmHg 87%
    22:00 +22°C° 0.7 mm 1 mps 663 mmHg 88%
    23:00 +22°C° 0.7 mm 1 mps 663 mmHg 88%

    19 October, Friday

    Time Temperature Precipitation Wind Pressure Humidity
    00:00 +22°C° 0.8 mm 1 mps 663 mmHg 89%
    01:00 +22°C° 0.8 mm 1 mps 662 mmHg 89%
    02:00 +21°C° 0.8 mm 1 mps 662 mmHg 90%
    03:00 +21°C° 0.4 mm 1 mps 662 mmHg 90%
    04:00 +21°C° 0.4 mm 1 mps 663 mmHg 91%
    05:00 +20°C° 0.4 mm 1 mps 663 mmHg 91%
    06:00 +22°C° 0.1 mm 1 mps 664 mmHg 83%
    07:00 +24°C° 0.1 mm 1 mps 665 mmHg 75%
    08:00 +26°C° 0.1 mm 1 mps 665 mmHg 67%
    09:00 +28°C° 0.1 mm 1 mps 665 mmHg 60%
    10:00 +30°C° 0.1 mm 1 mps 665 mmHg 53%
    11:00 +32°C° 0.1 mm 1 mps 665 mmHg 46%
    12:00 +31°C° 0.9 mm 2 mps 664 mmHg 52%
    13:00 +30°C° 0.9 mm 2 mps 663 mmHg 57%
    14:00 +29°C° 0.9 mm 2 mps 662 mmHg 62%
    15:00 +27°C° 2.3 mm 2 mps 662 mmHg 70%
    16:00 +25°C° 2.3 mm 2 mps 662 mmHg 78%
    17:00 +24°C° 2.3 mm 2 mps 662 mmHg 85%
    18:00 +23°C° 1.3 mm 2 mps 663 mmHg 87%
    19:00 +23°C° 1.3 mm 2 mps 663 mmHg 89%
    20:00 +21°C° 1.3 mm 2 mps 664 mmHg 90%
    21:00 +21°C° 0.6 mm 2 mps 664 mmHg 90%
    22:00 +21°C° 0.6 mm 2 mps 664 mmHg 91%
    23:00 +21°C° 0.6 mm 1 mps 664 mmHg 91%

    20 October, Saturday

    Time Temperature Precipitation Wind Pressure Humidity
    00:00 +20°C° 0.1 mm 2 mps 663 mmHg 90%
    01:00 +19°C° 0.1 mm 2 mps 663 mmHg 90%
    02:00 +19°C° 0.1 mm 2 mps 662 mmHg 90%
    03:00 +19°C° 0 mm 2 mps 663 mmHg 89%
    04:00 +18°C° 0 mm 2 mps 663 mmHg 89%
    05:00 +18°C° 0 mm 2 mps 663 mmHg 88%
    06:00 +20°C° 0 mm 2 mps 664 mmHg 80%
    07:00 +23°C° 0 mm 2 mps 665 mmHg 71%
    08:00 +25°C° 0 mm 2 mps 666 mmHg 62%
    09:00 +27°C° 0 mm 2 mps 666 mmHg 55%
    10:00 +29°C° 0 mm 2 mps 666 mmHg 48%
    11:00 +31°C° 0 mm 2 mps 666 mmHg 41%
    12:00 +31°C° 0 mm 2 mps 665 mmHg 41%
    13:00 +33°C° 0 mm 3 mps 664 mmHg 41%
    14:00 +33°C° 0 mm 3 mps 663 mmHg 41%
    15:00 +30°C° 0 mm 3 mps 663 mmHg 50%
    16:00 +28°C° 0 mm 2 mps 663 mmHg 58%
    17:00 +27°C° 0 mm 2 mps 663 mmHg 67%
    18:00 +26°C° 0.1 mm 2 mps 663 mmHg 70%
    19:00 +24°C° 0.1 mm 1 mps 664 mmHg 73%
    20:00 +23°C° 0.1 mm 1 mps 664 mmHg 76%
    21:00 +23°C° 0.5 mm 1 mps 664 mmHg 76%
    22:00 +21°C° 0.5 mm 2 mps 664 mmHg 75%
    23:00 +20°C° 0.5 mm 2 mps 664 mmHg 75%

    21 October, Sunday

    Time Temperature Precipitation Wind Pressure Humidity
    00:00 +20°C° 0 mm 2 mps 664 mmHg 74%
    01:00 +19°C° 0 mm 2 mps 663 mmHg 73%
    02:00 +19°C° 0 mm 2 mps 663 mmHg 72%
    03:00 +19°C° 0 mm 2 mps 663 mmHg 72%
    04:00 +18°C° 0 mm 2 mps 664 mmHg 72%
    05:00 +18°C° 0 mm 2 mps 664 mmHg 72%
    06:00 +21°C° 0 mm 2 mps 665 mmHg 65%
    07:00 +24°C° 0 mm 2 mps 665 mmHg 58%
    08:00 +26°C° 0 mm 2 mps 666 mmHg 51%
    09:00 +28°C° 0 mm 2 mps 666 mmHg 46%
    10:00 +30°C° 0 mm 2 mps 666 mmHg 40%
    11:00 +32°C° 0 mm 2 mps 665 mmHg 34%
    12:00 +32°C° 0 mm 2 mps 665 mmHg 35%
    13:00 +33°C° 0 mm 3 mps 664 mmHg 36%
    14:00 +33°C° 0 mm 3 mps 663 mmHg 36%
    15:00 +30°C° 0 mm 3 mps 663 mmHg 44%
    16:00 +28°C° 0 mm 2 mps 663 mmHg 53%
    17:00 +27°C° 0 mm 2 mps 663 mmHg 61%
    18:00 +26°C° 0 mm 1 mps 663 mmHg 61%
    19:00 +26°C° 0 mm 1 mps 664 mmHg 62%
    20:00 +25°C° 0 mm 1 mps 665 mmHg 63%
    21:00 +24°C° 0 mm 1 mps 664 mmHg 64%
    22:00 +24°C° 0 mm 1 mps 664 mmHg 66%
    23:00 +23°C° 0 mm 1 mps 664 mmHg 68%
    Show more